| time (UTC) | temp F | wind direction | speed MPH | gust MPH | rain 1hr in | rain 24hr in | rain mn in | humidity % | barometer mb |
| 20260509151142 | 71 | 210 | 17.0 | 27.0 | 0.00 | 0.00 | 0.00 | 42 | 1016.9 |
| 20260509150834 | 71 | 214 | 17.0 | 27.0 | 0.00 | 0.00 | 0.00 | 42 | 1017.1 |
| 20260509150522 | 71 | 232 | 16.0 | 27.0 | 0.00 | 0.00 | 0.00 | 42 | 1016.9 |
| 20260509145805 | 70 | 238 | 18.0 | 29.0 | 0.00 | 0.00 | 0.00 | 43 | 1017.0 |
| 20260509145453 | 70 | 239 | 19.0 | 29.0 | 0.00 | 0.00 | 0.00 | 43 | 1017.1 |
| 20260509145149 | 69 | 237 | 19.0 | 29.0 | 0.00 | 0.00 | 0.00 | 43 | 1017.1 |
| 20260509144843 | 69 | 247 | 18.0 | 29.0 | 0.00 | 0.00 | 0.00 | 42 | 1017.0 |
| 20260509144542 | 69 | 225 | 18.0 | 29.0 | 0.00 | 0.00 | 0.00 | 43 | 1017.1 |
| 20260509144239 | 69 | 218 | 18.0 | 25.0 | 0.00 | 0.00 | 0.00 | 43 | 1017.2 |
| 20260509143940 | 68 | 225 | 18.0 | 25.0 | 0.00 | 0.00 | 0.00 | 45 | 1017.3 |
| 20260509143634 | 68 | 225 | 18.0 | 25.0 | 0.00 | 0.00 | 0.00 | 45 | 1017.5 |
| 20260509142904 | 67 | 229 | 16.0 | 24.0 | 0.00 | 0.00 | 0.00 | 46 | 1017.5 |
| 20260509142600 | 67 | 241 | 15.0 | 24.0 | 0.00 | 0.00 | 0.00 | 48 | 1017.6 |
| 20260509142300 | 66 | 240 | 16.0 | 24.0 | 0.00 | 0.00 | 0.00 | 49 | 1017.9 |
| 20260509141952 | 66 | 231 | 15.0 | 24.0 | 0.00 | 0.00 | 0.00 | 49 | 1017.9 |
| 20260509141652 | 65 | 231 | 15.0 | 24.0 | 0.00 | 0.00 | 0.00 | 50 | 1017.9 |
| 20260509141341 | 64 | 230 | 14.0 | 24.0 | 0.00 | 0.00 | 0.00 | 52 | 1018.0 |
| 20260509141038 | 64 | 227 | 14.0 | 24.0 | 0.00 | 0.00 | 0.00 | 52 | 1018.0 |
| 20260509140730 | 63 | 246 | 14.0 | 21.0 | 0.00 | 0.00 | 0.00 | 53 | 1018.2 |
| 20260509140431 | 63 | 241 | 14.0 | 21.0 | 0.00 | 0.00 | 0.00 | 54 | 1018.2 |
| 20260509140122 | 62 | 235 | 14.0 | 21.0 | 0.00 | 0.00 | 0.00 | 55 | 1018.3 |
| 20260509135824 | 62 | 241 | 14.0 | 21.0 | 0.00 | 0.00 | 0.00 | 56 | 1018.2 |
| 20260509135053 | 61 | 228 | 13.0 | 22.0 | 0.00 | 0.00 | 0.00 | 57 | 1018.4 |
| 20260509134743 | 60 | 232 | 13.0 | 22.0 | 0.00 | 0.00 | 0.00 | 58 | 1018.4 |
| 20260509134445 | 60 | 233 | 14.0 | 22.0 | 0.00 | 0.00 | 0.00 | 58 | 1018.6 |
| 20260509134147 | 59 | 236 | 15.0 | 22.0 | 0.00 | 0.00 | 0.00 | 58 | 1018.6 |
| 20260509133842 | 59 | 239 | 14.0 | 22.0 | 0.00 | 0.00 | 0.00 | 58 | 1018.6 |
| 20260509133532 | 59 | 229 | 13.0 | 22.0 | 0.00 | 0.00 | 0.00 | 58 | 1018.7 |
| 20260509132809 | 58 | 242 | 12.0 | 22.0 | 0.00 | 0.00 | 0.00 | 60 | 1018.7 |
| 20260509132508 | 58 | 242 | 11.0 | 17.0 | 0.00 | 0.00 | 0.00 | 62 | 1018.8 |
| 20260509131747 | 56 | 233 | 10.0 | 15.0 | 0.00 | 0.00 | 0.00 | 64 | 1018.7 |
| 20260509131433 | 56 | 237 | 9.0 | 15.0 | 0.00 | 0.00 | 0.00 | 65 | 1018.8 |
| 20260509131133 | 55 | 237 | 8.0 | 14.0 | 0.00 | 0.00 | 0.00 | 67 | 1018.7 |
| 20260509130822 | 53 | 240 | 6.0 | 14.0 | 0.00 | 0.00 | 0.00 | 69 | 1018.7 |
| 20260509130515 | 52 | 240 | 5.0 | 11.0 | 0.00 | 0.00 | 0.00 | 71 | 1018.7 |
| 20260509130217 | 52 | 240 | 5.0 | 8.0 | 0.00 | 0.00 | 0.00 | 71 | 1018.7 |
| 20260509125908 | 52 | 240 | 4.0 | 7.0 | 0.00 | 0.00 | 0.00 | 72 | 1018.7 |
| 20260509125610 | 51 | 240 | 4.0 | 7.0 | 0.00 | 0.00 | 0.00 | 72 | 1018.7 |
| 20260509124843 | 51 | 240 | 4.0 | 5.0 | 0.00 | 0.00 | 0.00 | 73 | 1018.5 |
| 20260509124541 | 50 | 240 | 4.0 | 5.0 | 0.00 | 0.00 | 0.00 | 73 | 1018.4 |
| 20260509124231 | 50 | 240 | 3.0 | 5.0 | 0.00 | 0.00 | 0.00 | 73 | 1018.4 |
| 20260509123923 | 50 | 240 | 3.0 | 7.0 | 0.00 | 0.00 | 0.00 | 73 | 1018.3 |
| 20260509123619 | 50 | 240 | 4.0 | 7.0 | 0.00 | 0.00 | 0.00 | 73 | 1018.2 |
| 20260509123322 | 50 | 240 | 4.0 | 7.0 | 0.00 | 0.00 | 0.00 | 73 | 1018.1 |
| 20260509122135 | 50 | 240 | 6.0 | 8.0 | 0.00 | 0.00 | 0.00 | 73 | 1018.1 |
| 20260509121410 | 49 | 240 | 6.0 | 8.0 | 0.00 | 0.00 | 0.00 | 73 | 1017.9 |
| 20260509121102 | 49 | 240 | 5.0 | 8.0 | 0.00 | 0.00 | 0.00 | 74 | 1017.8 |
| 20260509120750 | 49 | 240 | 5.0 | 8.0 | 0.00 | 0.00 | 0.00 | 74 | 1017.8 |
| 20260509120437 | 49 | 240 | 5.0 | 8.0 | 0.00 | 0.00 | 0.00 | 73 | 1017.8 |
| 20260509120132 | 49 | 240 | 6.0 | 8.0 | 0.00 | 0.00 | 0.00 | 73 | 1017.7 |
| 20260509115825 | 49 | 240 | 6.0 | 8.0 | 0.00 | 0.00 | 0.00 | 72 | 1017.6 |
| 20260509115518 | 49 | 240 | 6.0 | 8.0 | 0.00 | 0.00 | 0.00 | 72 | 1017.6 |
| 20260509115211 | 49 | 240 | 6.0 | 10.0 | 0.00 | 0.00 | 0.00 | 72 | 1017.7 |
| 20260509114905 | 50 | 240 | 6.0 | 10.0 | 0.00 | 0.00 | 0.00 | 71 | 1017.6 |
| 20260509114601 | 50 | 240 | 6.0 | 10.0 | 0.00 | 0.00 | 0.00 | 70 | 1017.6 |
| 20260509114303 | 50 | 240 | 7.0 | 11.0 | 0.00 | 0.00 | 0.00 | 70 | 1017.6 |
| 20260509113546 | 51 | 240 | 8.0 | 11.0 | 0.00 | 0.00 | 0.00 | 69 | 1017.5 |
| 20260509113249 | 51 | 240 | 8.0 | 11.0 | 0.00 | 0.00 | 0.00 | 69 | 1017.5 |
| 20260509112945 | 51 | 241 | 7.0 | 11.0 | 0.00 | 0.00 | 0.00 | 69 | 1017.6 |
| 20260509112635 | 51 | 241 | 7.0 | 11.0 | 0.00 | 0.00 | 0.00 | 69 | 1017.6 |
| 20260509112325 | 51 | 241 | 7.0 | 10.0 | 0.00 | 0.00 | 0.00 | 68 | 1017.6 |
| 20260509112019 | 51 | 241 | 7.0 | 10.0 | 0.00 | 0.00 | 0.00 | 68 | 1017.6 |
| 20260509111704 | 52 | 241 | 7.0 | 10.0 | 0.00 | 0.00 | 0.00 | 67 | 1017.7 |
| 20260509111404 | 52 | 241 | 7.0 | 11.0 | 0.00 | 0.00 | 0.00 | 67 | 1017.7 |
| 20260509111104 | 52 | 241 | 7.0 | 11.0 | 0.00 | 0.00 | 0.00 | 66 | 1017.7 |
| 20260509110339 | 53 | 241 | 8.0 | 11.0 | 0.00 | 0.00 | 0.00 | 66 | 1017.8 |
| 20260509110040 | 53 | 241 | 8.0 | 11.0 | 0.00 | 0.00 | 0.00 | 65 | 1017.9 |
| 20260509105315 | 53 | 241 | 7.0 | 11.0 | 0.00 | 0.00 | 0.00 | 65 | 1017.9 |
| 20260509105013 | 53 | 241 | 7.0 | 11.0 | 0.00 | 0.00 | 0.00 | 65 | 1017.9 |
| 20260509104713 | 53 | 241 | 8.0 | 11.0 | 0.00 | 0.00 | 0.00 | 65 | 1017.9 |
| 20260509103948 | 53 | 242 | 7.0 | 11.0 | 0.00 | 0.00 | 0.00 | 66 | 1017.9 |
| 20260509103648 | 53 | 242 | 7.0 | 11.0 | 0.00 | 0.00 | 0.00 | 67 | 1017.9 |
| 20260509103341 | 53 | 242 | 6.0 | 9.0 | 0.00 | 0.00 | 0.00 | 68 | 1018.0 |
| 20260509103029 | 52 | 242 | 6.0 | 9.0 | 0.00 | 0.00 | 0.00 | 68 | 1017.9 |
| 20260509102724 | 52 | 242 | 5.0 | 8.0 | 0.00 | 0.00 | 0.00 | 69 | 1018.1 |
| 20260509102418 | 52 | 242 | 5.0 | 7.0 | 0.00 | 0.00 | 0.00 | 69 | 1018.1 |
| 20260509102121 | 52 | 242 | 5.0 | 9.0 | 0.00 | 0.00 | 0.00 | 69 | 1018.1 |
| 20260509101811 | 52 | 242 | 5.0 | 9.0 | 0.00 | 0.00 | 0.00 | 69 | 1018.1 |
| 20260509101053 | 52 | 242 | 6.0 | 9.0 | 0.00 | 0.00 | 0.00 | 69 | 1018.1 |
| 20260509100747 | 52 | 242 | 6.0 | 9.0 | 0.00 | 0.00 | 0.00 | 69 | 1018.1 |
| 20260509100017 | 52 | 242 | 6.0 | 8.0 | 0.00 | 0.00 | 0.00 | 69 | 1018.1 |
| 20260509095715 | 53 | 242 | 6.0 | 10.0 | 0.00 | 0.00 | 0.00 | 69 | 1017.9 |
| 20260509093635 | 53 | 242 | 7.0 | 11.0 | 0.00 | 0.00 | 0.00 | 69 | 1018.1 |
| 20260509093333 | 53 | 242 | 7.0 | 11.0 | 0.00 | 0.00 | 0.00 | 69 | 1018.0 |
| 20260509093037 | 53 | 242 | 7.0 | 11.0 | 0.00 | 0.00 | 0.00 | 69 | 1018.1 |
| 20260509092740 | 53 | 242 | 7.0 | 10.0 | 0.00 | 0.00 | 0.00 | 69 | 1018.2 |
| 20260509092435 | 53 | 242 | 7.0 | 10.0 | 0.00 | 0.00 | 0.00 | 69 | 1018.2 |
| 20260509092137 | 53 | 242 | 7.0 | 11.0 | 0.00 | 0.00 | 0.00 | 69 | 1018.3 |
| 20260509091831 | 53 | 242 | 6.0 | 11.0 | 0.00 | 0.00 | 0.00 | 69 | 1018.2 |
| 20260509091522 | 53 | 242 | 7.0 | 11.0 | 0.00 | 0.00 | 0.00 | 68 | 1018.2 |
| 20260509091221 | 54 | 242 | 7.0 | 11.0 | 0.00 | 0.00 | 0.00 | 68 | 1018.2 |
| 20260509090923 | 54 | 242 | 8.0 | 11.0 | 0.00 | 0.00 | 0.00 | 67 | 1018.2 |
| 20260509090622 | 54 | 242 | 8.0 | 11.0 | 0.00 | 0.00 | 0.00 | 67 | 1018.1 |
| 20260509090320 | 54 | 242 | 8.0 | 11.0 | 0.00 | 0.00 | 0.00 | 67 | 1018.1 |
| 20260509085131 | 53 | 248 | 8.0 | 12.0 | 0.00 | 0.00 | 0.00 | 70 | 1017.9 |
| 20260509084833 | 53 | 253 | 8.0 | 12.0 | 0.00 | 0.00 | 0.00 | 70 | 1018.0 |
| 20260509084533 | 53 | 263 | 8.0 | 12.0 | 0.00 | 0.00 | 0.00 | 71 | 1018.1 |
| 20260509084227 | 53 | 274 | 8.0 | 12.0 | 0.00 | 0.00 | 0.00 | 70 | 1018.3 |
| 20260509083927 | 53 | 288 | 8.0 | 10.0 | 0.00 | 0.00 | 0.00 | 70 | 1018.3 |
| 20260509083619 | 53 | 293 | 7.0 | 10.0 | 0.00 | 0.00 | 0.00 | 70 | 1018.3 |
| 20260509083314 | 53 | 304 | 7.0 | 10.0 | 0.00 | 0.00 | 0.00 | 71 | 1018.3 |
| 20260509082602 | 53 | 355 | 7.0 | 10.0 | 0.00 | 0.00 | 0.00 | 72 | 1018.3 |
| 20260509081832 | 53 | 32 | 7.0 | 10.0 | 0.00 | 0.00 | 0.00 | 72 | 1018.3 |
| 20260509081102 | 52 | 35 | 6.0 | 10.0 | 0.00 | 0.00 | 0.00 | 75 | 1018.0 |
| 20260509080346 | 52 | 34 | 6.0 | 9.0 | 0.00 | 0.00 | 0.00 | 75 | 1018.4 |
| 20260509080034 | 52 | 34 | 6.0 | 9.0 | 0.00 | 0.00 | 0.00 | 75 | 1018.4 |
| 20260509075729 | 52 | 35 | 6.0 | 9.0 | 0.00 | 0.00 | 0.00 | 75 | 1018.5 |
| 20260509075421 | 51 | 36 | 6.0 | 9.0 | 0.00 | 0.00 | 0.00 | 76 | 1018.4 |
| 20260509075116 | 51 | 36 | 6.0 | 9.0 | 0.00 | 0.00 | 0.00 | 77 | 1018.4 |
| 20260509074815 | 50 | 36 | 6.0 | 8.0 | 0.00 | 0.00 | 0.00 | 78 | 1018.5 |
| 20260509074519 | 50 | 36 | 6.0 | 8.0 | 0.00 | 0.00 | 0.00 | 79 | 1018.5 |
| 20260509074207 | 49 | 36 | 5.0 | 8.0 | 0.00 | 0.00 | 0.00 | 80 | 1018.5 |
| 20260509073900 | 49 | 36 | 5.0 | 8.0 | 0.00 | 0.00 | 0.00 | 82 | 1018.6 |
| 20260509073602 | 48 | 36 | 4.0 | 8.0 | 0.00 | 0.00 | 0.00 | 83 | 1018.7 |
| 20260509073249 | 47 | 36 | 4.0 | 6.0 | 0.00 | 0.00 | 0.00 | 83 | 1018.7 |
| 20260509072951 | 47 | 36 | 3.0 | 5.0 | 0.00 | 0.00 | 0.00 | 83 | 1018.7 |
| 20260509072653 | 47 | 36 | 3.0 | 4.0 | 0.00 | 0.00 | 0.00 | 83 | 1018.7 |
| 20260509071942 | 46 | 36 | 1.0 | 4.0 | 0.00 | 0.00 | 0.00 | 83 | 1018.7 |
| 20260509071644 | 46 | 36 | 0.0 | 2.0 | 0.00 | 0.00 | 0.00 | 83 | 1018.7 |
| 20260509071330 | 46 | 36 | 0.0 | 1.0 | 0.00 | 0.00 | 0.00 | 83 | 1018.7 |
| 20260509071028 | 46 | 36 | 0.0 | 1.0 | 0.00 | 0.00 | 0.00 | 83 | 1018.6 |
| 20260509070723 | 46 | 36 | 0.0 | 4.0 | 0.00 | 0.00 | 0.00 | 83 | 1018.8 |
| 20260509065125 | 46 | 36 | 1.0 | 3.0 | 0.00 | 0.00 | 0.00 | 84 | 1019.1 |
| 20260509064823 | 46 | 36 | 1.0 | 4.0 | 0.00 | 0.00 | 0.00 | 83 | 1019.0 |
| 20260509064515 | 45 | 36 | 1.0 | 4.0 | 0.00 | 0.00 | 0.00 | 83 | 1019.1 |
| 20260509064213 | 45 | 36 | 1.0 | 4.0 | 0.00 | 0.00 | 0.00 | 83 | 1019.2 |
| 20260509063026 | 45 | 36 | 2.0 | 4.0 | 0.00 | 0.00 | 0.00 | 83 | 1019.1 |
| 20260509062729 | 44 | 36 | 1.0 | 4.0 | 0.00 | 0.00 | 0.00 | 83 | 1019.1 |
| 20260509062419 | 44 | 36 | 2.0 | 4.0 | 0.00 | 0.00 | 0.00 | 82 | 1019.1 |
| 20260509062120 | 44 | 36 | 2.0 | 4.0 | 0.00 | 0.00 | 0.00 | 81 | 1019.0 |
| 20260509061820 | 45 | 36 | 1.0 | 4.0 | 0.00 | 0.00 | 0.00 | 81 | 1018.9 |
| 20260509061508 | 45 | 36 | 0.0 | 3.0 | 0.00 | 0.00 | 0.00 | 81 | 1019.0 |
| 20260509061207 | 45 | 36 | 0.0 | 1.0 | 0.00 | 0.00 | 0.00 | 81 | 1018.9 |
| 20260509060904 | 45 | 36 | 0.0 | 0.0 | 0.00 | 0.00 | 0.00 | 81 | 1018.8 |
| 20260509060605 | 45 | 36 | 0.0 | 1.0 | 0.00 | 0.00 | 0.00 | 81 | 1018.8 |
| 20260509060300 | 45 | 36 | 0.0 | 3.0 | 0.00 | 0.00 | 0.00 | 81 | 1018.8 |
| 20260509055111 | 45 | 36 | 0.0 | 3.0 | 0.00 | 0.00 | 0.00 | 81 | 1018.9 |
| 20260509054813 | 45 | 36 | 0.0 | 3.0 | 0.00 | 0.00 | 0.00 | 81 | 1019.0 |
| 20260509054513 | 45 | 36 | 0.0 | 3.0 | 0.00 | 0.00 | 0.00 | 81 | 1019.2 |
| 20260509054202 | 44 | 36 | 0.0 | 2.0 | 0.00 | 0.00 | 0.00 | 81 | 1019.2 |
| 20260509053855 | 44 | 36 | 0.0 | 2.0 | 0.00 | 0.00 | 0.00 | 81 | 1019.2 |
| 20260509053545 | 44 | 36 | 0.0 | 0.0 | 0.00 | 0.00 | 0.00 | 80 | 1019.2 |
| 20260509053240 | 44 | 36 | 1.0 | 4.0 | 0.00 | 0.00 | 0.00 | 80 | 1019.3 |
| 20260509052930 | 44 | 36 | 2.0 | 4.0 | 0.00 | 0.00 | 0.00 | 80 | 1019.5 |
| 20260509052155 | 45 | 36 | 2.0 | 4.0 | 0.00 | 0.00 | 0.00 | 80 | 1019.4 |
| 20260509051854 | 45 | 36 | 1.0 | 4.0 | 0.00 | 0.00 | 0.00 | 80 | 1019.4 |
| 20260509051557 | 45 | 36 | 1.0 | 4.0 | 0.00 | 0.00 | 0.00 | 79 | 1019.3 |
| 20260509045947 | 45 | 36 | 0.0 | 5.0 | 0.00 | 0.00 | 0.00 | 78 | 1019.3 |
| 20260509045648 | 46 | 36 | 0.0 | 5.0 | 0.00 | 0.00 | 0.00 | 78 | 1019.2 |
| 20260509045338 | 46 | 36 | 1.0 | 5.0 | 0.00 | 0.00 | 0.00 | 78 | 1019.2 |
| 20260509045030 | 46 | 36 | 1.0 | 5.0 | 0.00 | 0.00 | 0.00 | 78 | 1019.3 |
| 20260509044724 | 46 | 36 | 1.0 | 5.0 | 0.00 | 0.00 | 0.00 | 77 | 1019.4 |
| 20260509044427 | 46 | 36 | 0.0 | 3.0 | 0.00 | 0.00 | 0.00 | 76 | 1019.4 |
| 20260509044117 | 46 | 36 | 0.0 | 1.0 | 0.00 | 0.00 | 0.00 | 75 | 1019.2 |
| 20260509043804 | 46 | 36 | 0.0 | 0.0 | 0.00 | 0.00 | 0.00 | 75 | 1019.2 |
| 20260509043502 | 46 | 36 | 0.0 | 3.0 | 0.00 | 0.00 | 0.00 | 75 | 1019.3 |
| 20260509043201 | 46 | 36 | 0.0 | 3.0 | 0.00 | 0.00 | 0.00 | 75 | 1019.4 |
| 20260509042853 | 47 | 36 | 0.0 | 0.0 | 0.00 | 0.00 | 0.00 | 75 | 1019.4 |
| 20260509042552 | 47 | 36 | 0.0 | 1.0 | 0.00 | 0.00 | 0.00 | 75 | 1019.2 |
| 20260509042256 | 47 | 36 | 0.0 | 1.0 | 0.00 | 0.00 | 0.00 | 74 | 1019.2 |
| 20260509041946 | 47 | 36 | 0.0 | 0.0 | 0.00 | 0.00 | 0.00 | 74 | 1019.1 |
| 20260509041650 | 47 | 36 | 0.0 | 4.0 | 0.00 | 0.00 | 0.00 | 74 | 1019.2 |
| 20260509040508 | 47 | 36 | 1.0 | 1.0 | 0.00 | 0.00 | 0.00 | 72 | 1019.2 |
| 20260509040156 | 47 | 36 | 1.0 | 4.0 | 0.00 | 0.00 | 0.00 | 72 | 1019.3 |
| 20260509035426 | 48 | 36 | 0.0 | 3.0 | 0.00 | 0.00 | 0.00 | 70 | 1019.3 |
| 20260509035114 | 48 | 36 | 0.0 | 0.0 | 0.00 | 0.00 | 0.00 | 69 | 1019.1 |
| 20260509034352 | 49 | 36 | 0.0 | 0.0 | 0.00 | 0.00 | 0.00 | 68 | 1019.2 |
| 20260509034040 | 49 | 36 | 0.0 | 0.0 | 0.00 | 0.00 | 0.00 | 67 | 1019.1 |
| 20260509033730 | 50 | 36 | 0.0 | 0.0 | 0.00 | 0.00 | 0.00 | 67 | 1019.1 |
| 20260509033419 | 50 | 36 | 0.0 | 0.0 | 0.00 | 0.00 | 0.00 | 66 | 1019.1 |
| 20260509033108 | 50 | 36 | 0.0 | 0.0 | 0.00 | 0.00 | 0.00 | 66 | 1019.1 |
| 20260509032803 | 51 | 36 | 0.0 | 0.0 | 0.00 | 0.00 | 0.00 | 64 | 1019.0 |
| 20260509032500 | 51 | 36 | 0.0 | 0.0 | 0.00 | 0.00 | 0.00 | 63 | 1018.9 |
| 20260509031738 | 52 | 36 | 0.0 | 0.0 | 0.00 | 0.00 | 0.00 | 63 | 1018.8 |
| 20260509031426 | 53 | 36 | 0.0 | 0.0 | 0.00 | 0.00 | 0.00 | 62 | 1018.7 |
| 20260509031120 | 53 | 36 | 0.0 | 0.0 | 0.00 | 0.00 | 0.00 | 62 | 1018.8 |
| 20260509030820 | 54 | 36 | 0.0 | 0.0 | 0.00 | 0.00 | 0.00 | 61 | 1018.6 |
| 20260509030057 | 54 | 36 | 0.0 | 0.0 | 0.00 | 0.00 | 0.00 | 60 | 1018.7 |
| 20260509025754 | 54 | 36 | 0.0 | 0.0 | 0.00 | 0.00 | 0.00 | 60 | 1018.5 |
| 20260509025441 | 55 | 36 | 0.0 | 0.0 | 0.00 | 0.00 | 0.00 | 59 | 1018.5 |
| 20260509025137 | 55 | 36 | 0.0 | 0.0 | 0.00 | 0.00 | 0.00 | 59 | 1018.5 |
| 20260509024831 | 56 | 36 | 0.0 | 0.0 | 0.00 | 0.00 | 0.00 | 58 | 1018.4 |
| 20260509024529 | 56 | 36 | 0.0 | 0.0 | 0.00 | 0.00 | 0.00 | 58 | 1018.4 |
| 20260509024216 | 56 | 36 | 0.0 | 3.0 | 0.00 | 0.00 | 0.00 | 58 | 1018.4 |
| 20260509023918 | 56 | 36 | 0.0 | 3.0 | 0.00 | 0.00 | 0.00 | 57 | 1018.3 |
| 20260509023615 | 56 | 36 | 0.0 | 0.0 | 0.00 | 0.00 | 0.00 | 57 | 1018.3 |
| 20260509023302 | 57 | 36 | 0.0 | 0.0 | 0.00 | 0.00 | 0.00 | 56 | 1018.3 |
| 20260509023001 | 57 | 36 | 0.0 | 0.0 | 0.00 | 0.00 | 0.00 | 55 | 1018.2 |
| 20260509022654 | 57 | 36 | 0.0 | 3.0 | 0.00 | 0.00 | 0.00 | 55 | 1018.2 |
| 20260509022341 | 58 | 36 | 0.0 | 0.0 | 0.00 | 0.00 | 0.00 | 54 | 1018.2 |
| 20260509022041 | 59 | 36 | 0.0 | 0.0 | 0.00 | 0.00 | 0.00 | 54 | 1018.1 |
| 20260509021727 | 59 | 36 | 0.0 | 1.0 | 0.00 | 0.00 | 0.00 | 53 | 1018.3 |
| 20260509021421 | 59 | 36 | 0.0 | 1.0 | 0.00 | 0.00 | 0.00 | 51 | 1018.2 |
| 20260509020706 | 60 | 36 | 0.0 | 1.0 | 0.00 | 0.00 | 0.00 | 51 | 1018.1 |
| 20260509015935 | 61 | 36 | 0.0 | 0.0 | 0.00 | 0.00 | 0.00 | 49 | 1018.0 |
| 20260509015627 | 62 | 36 | 0.0 | 0.0 | 0.00 | 0.00 | 0.00 | 47 | 1018.1 |
| 20260509015320 | 63 | 36 | 0.0 | 0.0 | 0.00 | 0.00 | 0.00 | 47 | 1018.1 |
| 20260509014559 | 64 | 36 | 0.0 | 3.0 | 0.00 | 0.00 | 0.00 | 45 | 1017.9 |
| 20260509014257 | 65 | 36 | 0.0 | 3.0 | 0.00 | 0.00 | 0.00 | 44 | 1017.9 |
| 20260509013954 | 66 | 36 | 1.0 | 3.0 | 0.00 | 0.00 | 0.00 | 43 | 1017.9 |
| 20260509013648 | 67 | 36 | 0.0 | 3.0 | 0.00 | 0.00 | 0.00 | 42 | 1017.9 |
| 20260509013337 | 67 | 36 | 0.0 | 3.0 | 0.00 | 0.00 | 0.00 | 41 | 1017.9 |
| 20260509012622 | 69 | 36 | 0.0 | 0.0 | 0.00 | 0.00 | 0.00 | 40 | 1018.0 |
| 20260509012315 | 69 | 36 | 0.0 | 0.0 | 0.00 | 0.00 | 0.00 | 39 | 1018.0 |
| 20260509012003 | 70 | 36 | 0.0 | 0.0 | 0.00 | 0.00 | 0.00 | 40 | 1017.9 |
| 20260509011254 | 70 | 36 | 0.0 | 0.0 | 0.00 | 0.00 | 0.00 | 39 | 1017.9 |
| 20260509010952 | 70 | 36 | 0.0 | 0.0 | 0.00 | 0.00 | 0.00 | 38 | 1017.9 |
| 20260509010641 | 70 | 36 | 0.0 | 0.0 | 0.00 | 0.00 | 0.00 | 38 | 1017.8 |
| 20260509010341 | 71 | 36 | 1.0 | 0.0 | 0.00 | 0.00 | 0.00 | 38 | 1017.8 |
| 20260509005155 | 72 | 36 | 2.0 | 5.0 | 0.00 | 0.00 | 0.00 | 36 | 1017.8 |
| 20260509004843 | 72 | 36 | 1.0 | 4.0 | 0.00 | 0.00 | 0.00 | 36 | 1017.8 |
| 20260509004533 | 73 | 36 | 0.0 | 4.0 | 0.00 | 0.00 | 0.00 | 36 | 1017.8 |
| 20260509003803 | 73 | 36 | 2.0 | 5.0 | 0.00 | 0.00 | 0.00 | 35 | 1017.9 |
| 20260509003450 | 73 | 36 | 3.0 | 5.0 | 0.00 | 0.00 | 0.00 | 34 | 1017.9 |
| 20260509003153 | 73 | 36 | 3.0 | 6.0 | 0.00 | 0.00 | 0.00 | 34 | 1017.9 |
| 20260509002433 | 73 | 36 | 3.0 | 6.0 | 0.00 | 0.00 | 0.00 | 34 | 1017.8 |
| 20260509002136 | 73 | 36 | 4.0 | 10.0 | 0.00 | 0.00 | 0.00 | 33 | 1017.8 |
| 20260509001832 | 73 | 36 | 4.0 | 10.0 | 0.00 | 0.00 | 0.00 | 34 | 1017.8 |
| 20260509001529 | 73 | 36 | 5.0 | 10.0 | 0.00 | 0.00 | 0.00 | 33 | 1017.7 |
| 20260509001226 | 73 | 36 | 5.0 | 10.0 | 0.00 | 0.00 | 0.00 | 33 | 1017.6 |
| 20260509000914 | 73 | 36 | 5.0 | 10.0 | 0.00 | 0.00 | 0.00 | 33 | 1017.6 |
| 20260509000616 | 73 | 36 | 5.0 | 10.0 | 0.00 | 0.00 | 0.00 | 33 | 1017.5 |
| 20260509000304 | 73 | 36 | 5.0 | 9.0 | 0.00 | 0.00 | 0.00 | 34 | 1017.5 |
| 20260508235552 | 74 | 36 | 5.0 | 9.0 | 0.00 | 0.00 | 0.00 | 33 | 1017.5 |
| 20260508235240 | 74 | 36 | 5.0 | 11.0 | 0.00 | 0.00 | 0.00 | 33 | 1017.6 |
| 20260508234943 | 74 | 36 | 6.0 | 11.0 | 0.00 | 0.00 | 0.00 | 33 | 1017.7 |
| 20260508234210 | 74 | 35 | 6.0 | 11.0 | 0.00 | 0.00 | 0.00 | 33 | 1017.6 |
| 20260508233906 | 74 | 34 | 6.0 | 11.0 | 0.00 | 0.00 | 0.00 | 33 | 1017.6 |
| 20260508233607 | 74 | 34 | 6.0 | 11.0 | 0.00 | 0.00 | 0.00 | 32 | 1017.5 |
| 20260508233303 | 74 | 34 | 5.0 | 11.0 | 0.00 | 0.00 | 0.00 | 33 | 1017.5 |
| 20260508232954 | 74 | 35 | 5.0 | 11.0 | 0.00 | 0.00 | 0.00 | 33 | 1017.5 |
| 20260508232646 | 74 | 34 | 6.0 | 11.0 | 0.00 | 0.00 | 0.00 | 33 | 1017.5 |
| 20260508231921 | 74 | 34 | 6.0 | 13.0 | 0.00 | 0.00 | 0.00 | 32 | 1017.5 |
| 20260508231619 | 74 | 42 | 5.0 | 13.0 | 0.00 | 0.00 | 0.00 | 33 | 1017.4 |
| 20260508231324 | 74 | 44 | 6.0 | 15.0 | 0.00 | 0.00 | 0.00 | 32 | 1017.4 |
| 20260508231019 | 74 | 44 | 6.0 | 15.0 | 0.00 | 0.00 | 0.00 | 33 | 1017.3 |
| 20260508230714 | 74 | 37 | 7.0 | 15.0 | 0.00 | 0.00 | 0.00 | 33 | 1017.3 |
| 20260508230403 | 74 | 34 | 8.0 | 15.0 | 0.00 | 0.00 | 0.00 | 33 | 1017.3 |
| 20260508230106 | 74 | 23 | 9.0 | 15.0 | 0.00 | 0.00 | 0.00 | 33 | 1017.3 |
| 20260508225751 | 74 | 21 | 8.0 | 15.0 | 0.00 | 0.00 | 0.00 | 33 | 1017.2 |
| 20260508225446 | 74 | 22 | 8.0 | 15.0 | 0.00 | 0.00 | 0.00 | 32 | 1017.1 |
| 20260508225143 | 74 | 39 | 7.0 | 13.0 | 0.00 | 0.00 | 0.00 | 33 | 1017.1 |
| 20260508224843 | 74 | 32 | 7.0 | 13.0 | 0.00 | 0.00 | 0.00 | 34 | 1017.1 |
| 20260508224535 | 75 | 32 | 8.0 | 13.0 | 0.00 | 0.00 | 0.00 | 33 | 1017.2 |
| 20260508224229 | 75 | 29 | 7.0 | 13.0 | 0.00 | 0.00 | 0.00 | 33 | 1017.1 |
| 20260508223923 | 75 | 34 | 7.0 | 13.0 | 0.00 | 0.00 | 0.00 | 33 | 1017.3 |
| 20260508223625 | 75 | 32 | 8.0 | 14.0 | 0.00 | 0.00 | 0.00 | 34 | 1017.3 |
| 20260508223323 | 75 | 33 | 9.0 | 14.0 | 0.00 | 0.00 | 0.00 | 33 | 1017.4 |
| 20260508223023 | 75 | 20 | 9.0 | 14.0 | 0.00 | 0.00 | 0.00 | 33 | 1017.4 |
| 20260508222717 | 75 | 0 | 9.0 | 17.0 | 0.00 | 0.00 | 0.00 | 33 | 1017.6 |
| 20260508222004 | 75 | 355 | 8.0 | 17.0 | 0.00 | 0.00 | 0.00 | 32 | 1017.5 |
| 20260508221238 | 74 | 47 | 10.0 | 17.0 | 0.00 | 0.00 | 0.00 | 32 | 1017.6 |
| 20260508220933 | 74 | 21 | 10.0 | 17.0 | 0.00 | 0.00 | 0.00 | 32 | 1017.6 |
| 20260508220620 | 74 | 15 | 9.0 | 19.0 | 0.00 | 0.00 | 0.00 | 32 | 1017.7 |
| 20260508220313 | 74 | 10 | 8.0 | 19.0 | 0.00 | 0.00 | 0.00 | 33 | 1017.7 |
| 20260508215549 | 74 | 17 | 11.0 | 19.0 | 0.00 | 0.00 | 0.00 | 33 | 1017.8 |
| 20260508215247 | 74 | 5 | 11.0 | 19.0 | 0.00 | 0.00 | 0.00 | 33 | 1017.9 |
| 20260508214937 | 74 | 355 | 9.0 | 19.0 | 0.00 | 0.00 | 0.00 | 33 | 1017.9 |
| 20260508214629 | 74 | 11 | 9.0 | 18.0 | 0.00 | 0.00 | 0.00 | 33 | 1017.8 |
| 20260508213857 | 74 | 23 | 10.0 | 23.0 | 0.00 | 0.00 | 0.00 | 34 | 1017.9 |
| 20260508213554 | 74 | 26 | 10.0 | 23.0 | 0.00 | 0.00 | 0.00 | 34 | 1017.9 |
| 20260508213242 | 74 | 5 | 9.0 | 23.0 | 0.00 | 0.00 | 0.00 | 33 | 1017.9 |
| 20260508212527 | 74 | 11 | 12.0 | 23.0 | 0.00 | 0.00 | 0.00 | 33 | 1017.9 |
| 20260508212222 | 74 | 18 | 11.0 | 23.0 | 0.00 | 0.00 | 0.00 | 34 | 1018.0 |
| 20260508211919 | 74 | 355 | 10.0 | 23.0 | 0.00 | 0.00 | 0.00 | 34 | 1018.0 |
| 20260508211617 | 74 | 22 | 9.0 | 21.0 | 0.00 | 0.00 | 0.00 | 33 | 1018.0 |
| 20260508211316 | 74 | 0 | 10.0 | 21.0 | 0.00 | 0.00 | 0.00 | 33 | 1018.1 |
| 20260508210537 | 75 | 35 | 12.0 | 21.0 | 0.00 | 0.00 | 0.00 | 34 | 1018.1 |
| 20260508210224 | 75 | 18 | 11.0 | 21.0 | 0.00 | 0.00 | 0.00 | 34 | 1018.1 |
| 20260508205920 | 75 | 344 | 11.0 | 21.0 | 0.00 | 0.00 | 0.00 | 33 | 1018.0 |
| 20260508205614 | 75 | 351 | 11.0 | 19.0 | 0.00 | 0.00 | 0.00 | 34 | 1018.1 |
| 20260508205308 | 75 | 18 | 11.0 | 19.0 | 0.00 | 0.00 | 0.00 | 34 | 1018.1 |
| 20260508205005 | 75 | 22 | 11.0 | 18.0 | 0.00 | 0.00 | 0.00 | 34 | 1018.1 |
| 20260508203818 | 75 | 344 | 11.0 | 22.0 | 0.00 | 0.00 | 0.00 | 33 | 1018.2 |
| 20260508203058 | 74 | 347 | 10.0 | 22.0 | 0.00 | 0.00 | 0.00 | 35 | 1018.2 |
| 20260508202759 | 74 | 343 | 9.0 | 18.0 | 0.00 | 0.00 | 0.00 | 36 | 1018.3 |
| 20260508202449 | 73 | 22 | 8.0 | 18.0 | 0.00 | 0.00 | 0.00 | 36 | 1018.3 |
| 20260508202139 | 73 | 32 | 10.0 | 18.0 | 0.00 | 0.00 | 0.00 | 38 | 1018.2 |
| 20260508201835 | 72 | 24 | 11.0 | 18.0 | 0.00 | 0.00 | 0.00 | 38 | 1018.2 |
| 20260508201534 | 72 | 19 | 11.0 | 18.0 | 0.00 | 0.00 | 0.00 | 36 | 1018.4 |
| 20260508201232 | 72 | 14 | 10.0 | 18.0 | 0.00 | 0.00 | 0.00 | 37 | 1018.4 |
| 20260508200502 | 73 | 16 | 10.0 | 18.0 | 0.00 | 0.00 | 0.00 | 36 | 1018.4 |
| 20260508200150 | 73 | 24 | 10.0 | 18.0 | 0.00 | 0.00 | 0.00 | 37 | 1018.4 |
| 20260508195839 | 73 | 346 | 9.0 | 20.0 | 0.00 | 0.00 | 0.00 | 38 | 1018.4 |
| 20260508195533 | 73 | 355 | 9.0 | 20.0 | 0.00 | 0.00 | 0.00 | 38 | 1018.4 |
| 20260508195234 | 73 | 5 | 9.0 | 20.0 | 0.00 | 0.00 | 0.00 | 37 | 1018.4 |
| 20260508194933 | 73 | 5 | 11.0 | 20.0 | 0.00 | 0.00 | 0.00 | 37 | 1018.4 |
| 20260508194625 | 73 | 26 | 12.0 | 20.0 | 0.00 | 0.00 | 0.00 | 37 | 1018.5 |
| 20260508194320 | 73 | 329 | 11.0 | 20.0 | 0.00 | 0.00 | 0.00 | 37 | 1018.5 |
| 20260508194008 | 73 | 337 | 9.0 | 18.0 | 0.00 | 0.00 | 0.00 | 37 | 1018.4 |
| 20260508193705 | 73 | 344 | 9.0 | 20.0 | 0.00 | 0.00 | 0.00 | 38 | 1018.5 |
| 20260508193352 | 73 | 14 | 9.0 | 20.0 | 0.00 | 0.00 | 0.00 | 39 | 1018.4 |
| 20260508193051 | 73 | 0 | 10.0 | 20.0 | 0.00 | 0.00 | 0.00 | 38 | 1018.4 |
| 20260508192747 | 73 | 348 | 11.0 | 20.0 | 0.00 | 0.00 | 0.00 | 39 | 1018.6 |
| 20260508192444 | 73 | 59 | 11.0 | 20.0 | 0.00 | 0.00 | 0.00 | 39 | 1018.6 |
| 20260508192143 | 72 | 355 | 11.0 | 20.0 | 0.00 | 0.00 | 0.00 | 40 | 1018.7 |
| 20260508191841 | 72 | 0 | 10.0 | 19.0 | 0.00 | 0.00 | 0.00 | 40 | 1018.6 |
| 20260508191544 | 72 | 5 | 10.0 | 19.0 | 0.00 | 0.00 | 0.00 | 39 | 1018.5 |
| 20260508191235 | 72 | 19 | 10.0 | 24.0 | 0.00 | 0.00 | 0.00 | 39 | 1018.7 |
| 20260508190931 | 72 | 30 | 11.0 | 24.0 | 0.00 | 0.00 | 0.00 | 40 | 1018.8 |
| 20260508190206 | 72 | 21 | 12.0 | 24.0 | 0.00 | 0.00 | 0.00 | 41 | 1018.8 |
| 20260508185858 | 72 | 11 | 12.0 | 24.0 | 0.00 | 0.00 | 0.00 | 41 | 1018.8 |
| 20260508185552 | 72 | 16 | 12.0 | 24.0 | 0.00 | 0.00 | 0.00 | 42 | 1018.8 |
| 20260508185253 | 71 | 0 | 11.0 | 19.0 | 0.00 | 0.00 | 0.00 | 42 | 1018.8 |
| 20260508184941 | 71 | 355 | 11.0 | 19.0 | 0.00 | 0.00 | 0.00 | 42 | 1018.9 |
| 20260508184645 | 71 | 355 | 11.0 | 19.0 | 0.00 | 0.00 | 0.00 | 41 | 1018.9 |
| 20260508184344 | 71 | 355 | 11.0 | 18.0 | 0.00 | 0.00 | 0.00 | 41 | 1019.0 |
| 20260508184033 | 72 | 11 | 10.0 | 19.0 | 0.00 | 0.00 | 0.00 | 42 | 1019.0 |
| 20260508183303 | 71 | 33 | 11.0 | 19.0 | 0.00 | 0.00 | 0.00 | 41 | 1019.0 |
| 20260508182527 | 71 | 5 | 12.0 | 20.0 | 0.00 | 0.00 | 0.00 | 44 | 1019.1 |
| 20260508182222 | 70 | 13 | 11.0 | 20.0 | 0.00 | 0.00 | 0.00 | 43 | 1019.0 |
| 20260508181909 | 70 | 15 | 12.0 | 21.0 | 0.00 | 0.00 | 0.00 | 43 | 1019.3 |
| 20260508181607 | 70 | 9 | 12.0 | 21.0 | 0.00 | 0.00 | 0.00 | 43 | 1019.3 |
| 20260508181301 | 70 | 20 | 12.0 | 21.0 | 0.00 | 0.00 | 0.00 | 44 | 1019.4 |
| 20260508181005 | 70 | 31 | 12.0 | 21.0 | 0.00 | 0.00 | 0.00 | 44 | 1019.4 |
| 20260508180655 | 70 | 355 | 11.0 | 21.0 | 0.00 | 0.00 | 0.00 | 43 | 1019.5 |
| 20260508180357 | 70 | 34 | 11.0 | 21.0 | 0.00 | 0.00 | 0.00 | 44 | 1019.5 |
| 20260508180059 | 70 | 19 | 10.0 | 21.0 | 0.00 | 0.00 | 0.00 | 45 | 1019.4 |
| 20260508175756 | 70 | 37 | 11.0 | 21.0 | 0.00 | 0.00 | 0.00 | 44 | 1019.5 |
| 20260508175442 | 69 | 15 | 12.0 | 21.0 | 0.00 | 0.00 | 0.00 | 45 | 1019.5 |
| 20260508175130 | 70 | 27 | 13.0 | 21.0 | 0.00 | 0.00 | 0.00 | 44 | 1019.5 |
| 20260508174413 | 70 | 27 | 12.0 | 21.0 | 0.00 | 0.00 | 0.00 | 45 | 1019.5 |
| 20260508174104 | 69 | 36 | 13.0 | 21.0 | 0.00 | 0.00 | 0.00 | 45 | 1019.4 |
| 20260508173750 | 69 | 14 | 13.0 | 21.0 | 0.00 | 0.00 | 0.00 | 45 | 1019.4 |
| 20260508173026 | 69 | 10 | 13.0 | 23.0 | 0.00 | 0.00 | 0.00 | 45 | 1019.6 |
| 20260508172722 | 69 | 17 | 14.0 | 23.0 | 0.00 | 0.00 | 0.00 | 46 | 1019.5 |
| 20260508172000 | 69 | 39 | 14.0 | 23.0 | 0.00 | 0.00 | 0.00 | 46 | 1019.5 |
| 20260508171236 | 69 | 38 | 15.0 | 22.0 | 0.00 | 0.00 | 0.00 | 47 | 1019.5 |
| 20260508170935 | 69 | 23 | 15.0 | 22.0 | 0.00 | 0.00 | 0.00 | 47 | 1019.4 |
| 20260508170632 | 69 | 17 | 15.0 | 22.0 | 0.00 | 0.00 | 0.00 | 47 | 1019.6 |
| 20260508170319 | 69 | 0 | 13.0 | 23.0 | 0.00 | 0.00 | 0.00 | 47 | 1019.5 |
| 20260508170020 | 69 | 10 | 13.0 | 23.0 | 0.00 | 0.00 | 0.00 | 48 | 1019.5 |
| 20260508165708 | 68 | 5 | 12.0 | 23.0 | 0.00 | 0.00 | 0.00 | 48 | 1019.5 |
| 20260508165358 | 68 | 33 | 12.0 | 23.0 | 0.00 | 0.00 | 0.00 | 49 | 1019.5 |
| 20260508165047 | 68 | 39 | 13.0 | 23.0 | 0.00 | 0.00 | 0.00 | 50 | 1019.5 |
| 20260508164748 | 68 | 14 | 13.0 | 23.0 | 0.00 | 0.00 | 0.00 | 49 | 1019.6 |
| 20260508164443 | 68 | 19 | 12.0 | 23.0 | 0.00 | 0.00 | 0.00 | 49 | 1019.6 |
| 20260508164139 | 68 | 12 | 12.0 | 22.0 | 0.00 | 0.00 | 0.00 | 49 | 1019.6 |
| 20260508163841 | 67 | 15 | 12.0 | 22.0 | 0.00 | 0.00 | 0.00 | 51 | 1019.6 |
| 20260508163536 | 67 | 24 | 13.0 | 22.0 | 0.00 | 0.00 | 0.00 | 50 | 1019.7 |
| 20260508162813 | 67 | 10 | 13.0 | 22.0 | 0.00 | 0.00 | 0.00 | 51 | 1019.8 |
| 20260508162042 | 66 | 15 | 13.0 | 22.0 | 0.00 | 0.00 | 0.00 | 52 | 1019.7 |
| 20260508161738 | 66 | 37 | 13.0 | 22.0 | 0.00 | 0.00 | 0.00 | 52 | 1019.7 |
| 20260508161434 | 66 | 28 | 14.0 | 22.0 | 0.00 | 0.00 | 0.00 | 52 | 1019.8 |
| 20260508161121 | 66 | 23 | 14.0 | 22.0 | 0.00 | 0.00 | 0.00 | 51 | 1019.8 |
| 20260508160812 | 66 | 35 | 13.0 | 22.0 | 0.00 | 0.00 | 0.00 | 52 | 1019.8 |
| 20260508160458 | 66 | 28 | 13.0 | 22.0 | 0.00 | 0.00 | 0.00 | 54 | 1019.8 |
| 20260508160153 | 65 | 9 | 13.0 | 22.0 | 0.00 | 0.00 | 0.00 | 53 | 1019.8 |
| 20260508155847 | 65 | 15 | 13.0 | 21.0 | 0.00 | 0.00 | 0.00 | 54 | 1019.7 |
| 20260508155122 | 65 | 26 | 14.0 | 21.0 | 0.00 | 0.00 | 0.00 | 54 | 1019.7 |
| 20260508154816 | 65 | 32 | 14.0 | 21.0 | 0.00 | 0.00 | 0.00 | 55 | 1019.7 |
| 20260508154510 | 65 | 19 | 15.0 | 23.0 | 0.00 | 0.00 | 0.00 | 54 | 1019.8 |
| 20260508154202 | 65 | 16 | 16.0 | 23.0 | 0.00 | 0.00 | 0.00 | 54 | 1019.7 |
| 20260508153445 | 64 | 355 | 16.0 | 23.0 | 0.00 | 0.00 | 0.00 | 54 | 1019.6 |
| 20260508153149 | 64 | 12 | 14.0 | 23.0 | 0.00 | 0.00 | 0.00 | 56 | 1019.6 |
| 20260508152840 | 64 | 10 | 14.0 | 23.0 | 0.00 | 0.00 | 0.00 | 57 | 1019.6 |
| 20260508152527 | 64 | 20 | 13.0 | 22.0 | 0.00 | 0.00 | 0.00 | 59 | 1019.5 |
| 20260508151806 | 63 | 18 | 14.0 | 23.0 | 0.00 | 0.00 | 0.00 | 59 | 1019.6 |
| 20260508151500 | 63 | 36 | 14.0 | 23.0 | 0.00 | 0.00 | 0.00 | 58 | 1019.5 |